[[{"header":{"parameterUnit":"m.s-1","parameterCategory":1,"la1":30.2991,"la2":30.254,"lo1":-89.0895,"lo2":-89.0444,"dy":0.0017,"dx":0.0017,"nx":28,"ny":28,"refTime":"2024-06-02T21:00:00:Z","depth":0,"parameterNumber":2,"parameterNumberName":"U-component_of_WINDS"},"data":[0,0,0,0,0,0,0,0,0,0,0,0,0,0,0,0,0,0,0,0,0,0,0,0,0,0,0,0,0,0,0,0,0,0,0,0,0,0,0,0,0,0,0,0,0,0,0,0,0,0,0,0,0,0,0,0,0,0,-0.9211,-0.9211,0,-0.9235,-0.9235,-0.9235,-0.9221,-0.922,-0.922,-0.9219,-0.9244,-0.9245,-0.9247,0,0,0,0,0,0,0,0,0,0,0,0,0,-0.9154,-0.9155,-0.9211,-0.9211,-0.9211,-0.9235,-0.9235,-0.9235,-0.9221,-0.922,-0.9219,-0.9219,-0.9244,-0.9245,-0.9247,0,0,0,0,0,0,0,0,0,0,0,0,0,-0.9179,-0.9156,-0.9211,-0.9207,-0.9207,-0.9235,-0.9235,-0.9236,-0.9221,-0.922,-0.9219,-0.9218,-0.9243,-0.9245,-0.9247,-0.928,0,0,-0.9253,-0.9254,0,0,0,0,0,0,0,0,-0.9177,-0.9181,-0.9207,-0.9207,-0.9207,-0.9224,-0.9224,-0.925,-0.9222,-0.9216,-0.9219,-0.9218,-0.9238,-0.9241,-0.9247,-0.9281,-0.9282,-0.9253,-0.9254,-0.9255,-0.9256,0,0,0,0,0,0,0,-0.9176,-0.918,-0.922,-0.9208,-0.9208,-0.9205,-0.9207,-0.9229,-0.9233,-0.9216,-0.9215,-0.9218,-0.9238,-0.9246,-0.9248,-0.9282,-0.9253,-0.9255,-0.9256,-0.9257,-0.9346,-0.9347,0,0,0,0,0,0,-0.9174,-0.9178,-0.922,-0.9221,-0.9189,-0.9207,-0.9209,-0.922,-0.9232,-0.9233,-0.9219,-0.9218,-0.9243,-0.9246,-0.9249,-0.9288,-0.9255,-0.9257,-0.9258,-0.9344,-0.9346,-0.9347,0,0,0,0,0,0,-0.9173,-0.9178,-0.9219,-0.9199,-0.9204,-0.9209,-0.9221,-0.9221,-0.9228,-0.9235,-0.9235,-0.9226,-0.9242,-0.9246,-0.9272,-0.9289,-0.9258,-0.926,-0.9343,-0.9345,-0.9346,-0.9368,0,0,0,0,0,0,-0.9171,-0.9177,-0.9189,-0.92,-0.9205,-0.9242,-0.9222,-0.9222,-0.9231,-0.9229,-0.9241,-0.9242,-0.9241,-0.927,-0.9274,-0.9291,-0.9261,-0.9342,-0.9344,-0.9346,-0.9366,-0.937,-0.9374,0,0,0,0,0,-0.9169,-0.9194,-0.919,-0.9195,-0.9221,-0.9242,-0.9246,-0.9244,-0.9233,-0.9245,-0.925,-0.9242,-0.9287,-0.9272,-0.9278,-0.9295,-0.934,-0.9343,-0.9346,-0.9364,-0.9369,-0.9374,0,0,0,0,0,0,-0.9186,-0.9196,-0.9191,-0.922,-0.9231,-0.924,-0.9255,-0.925,-0.9264,-0.9262,-0.926,-0.9263,-0.929,-0.9296,-0.928,-0.9328,-0.9312,-0.9316,-0.9324,-0.9329,-0.9333,-0.9331,-0.9263,0,0,0,0,0,-0.9193,-0.921,-0.9217,-0.9243,-0.9248,-0.9251,-0.9261,-0.9259,-0.9269,-0.9274,-0.928,-0.9291,-0.9308,-0.9319,-0.9334,-0.9367,-0.9369,-0.9382,-0.9386,-0.9389,-0.9392,-0.9411,-0.9416,-0.9356,-0.9356,-0.9356,0,0,-0.9208,-0.9215,-0.9226,-0.9246,-0.9254,-0.9272,-0.9255,-0.9274,-0.9287,-0.9277,-0.9302,-0.9307,-0.932,-0.935,-0.9363,-0.9355,-0.941,-0.9393,-0.9395,-0.9397,-0.9414,-0.942,-0.9425,-0.9358,-0.9357,-0.9357,0,0,-0.9244,-0.9251,-0.9273,-0.9281,-0.9293,-0.9295,-0.9301,-0.9311,-0.9314,-0.934,-0.9333,-0.9349,-0.9378,-0.9387,-0.9395,-0.9437,-0.943,-0.9442,-0.9463,-0.9481,-0.9486,-0.949,-0.9505,-0.951,-0.9445,-0.9445,-0.9445,0,-0.926,-0.9286,-0.9285,-0.9305,-0.9314,-0.9306,-0.9329,-0.9337,-0.9354,-0.9361,-0.9352,-0.9388,-0.9396,-0.9428,-0.9438,-0.9445,-0.9452,-0.944,-0.9485,-0.9489,-0.9493,-0.9508,-0.9513,-0.9446,-0.9446,-0.9446,-0.9446,0,-0.9307,-0.9325,-0.9341,-0.9358,-0.9369,-0.9391,-0.9393,-0.9405,-0.9403,-0.9406,-0.9433,-0.9442,-0.946,-0.9467,-0.9465,-0.95,-0.9494,-0.9485,-0.9468,-0.9501,-0.9514,-0.9519,-0.9448,-0.9448,-0.9448,-0.9447,0,0,-0.9353,-0.9369,-0.9375,-0.9383,-0.9396,-0.9411,-0.9432,-0.945,-0.946,-0.9472,-0.9491,-0.9516,-0.9508,-0.9518,-0.9517,-0.9532,-0.9565,-0.9522,-0.9522,-0.9529,-0.9604,-0.9611,-0.9617,-0.9561,-0.9562,-0.9563,-0.9603,0,-0.9389,-0.9426,-0.9426,-0.9461,-0.9478,-0.9471,-0.949,-0.9501,-0.9505,-0.9521,-0.9525,-0.9543,-0.9531,-0.9537,-0.9552,-0.9558,-0.958,-0.9555,-0.9579,-0.9579,-0.9575,-0.9624,-0.9631,-0.9669,-0.9609,-0.961,-0.961,0,-0.9437,-0.9451,-0.9487,-0.9499,-0.9506,-0.9523,-0.954,-0.9555,-0.9567,-0.9569,-0.9581,-0.9578,-0.96,-0.9584,-0.9615,-0.9598,-0.9608,-0.9612,-0.9614,-0.9616,-0.9596,-0.9627,-0.968,-0.9686,-0.9618,-0.9618,-0.9617,0,-0.9467,-0.9495,-0.952,-0.9527,-0.9542,-0.9554,-0.9561,-0.9572,-0.9583,-0.9598,-0.9605,-0.9622,-0.9632,-0.9646,-0.9648,-0.9635,-0.968,-0.9663,-0.9682,-0.9682,-0.9691,-0.9691,-0.9747,-0.9698,-0.9698,-0.9698,-0.9698,0,-0.9508,-0.953,-0.9534,-0.955,-0.9575,-0.9575,-0.9601,-0.9606,-0.9617,-0.9634,-0.963,-0.9646,-0.9648,-0.9665,-0.9667,-0.9693,-0.9697,-0.97,-0.97,-0.97,-0.97,-0.9706,-0.9704,-0.97,-0.9699,-0.9699,-0.9699,0,-0.9546,-0.9549,-0.9576,-0.9588,-0.9592,-0.961,-0.962,-0.9636,-0.964,-0.9661,-0.9667,-0.9673,-0.9693,-0.9697,-0.972,-0.9722,-0.9753,-0.9751,-0.9749,-0.9749,-0.9768,-0.9766,-0.983,-0.9839,-0.9784,-0.9785,-0.9785,0,-0.9571,-0.9588,-0.9602,-0.9613,-0.9621,-0.9638,-0.965,-0.9651,-0.9663,-0.9679,-0.9693,-0.9712,-0.9728,-0.9761,-0.9768,-0.9786,-0.9784,-0.9805,-0.9787,-0.9787,-0.9785,-0.9784,-0.9786,-0.9809,-0.9809,-0.981,-0.981,0,-0.9617,-0.9618,-0.9634,-0.9651,-0.9665,-0.9678,-0.9691,-0.97,-0.9704,-0.9718,-0.9738,-0.975,-0.9775,-0.9794,-0.9813,-0.9821,-0.9816,-0.9816,-0.9822,-0.9822,-0.982,-0.9821,-0.9759,-0.9814,-0.9814,-0.9814,-0.9813,-0.9813,-0.9649,-0.9665,-0.9677,-0.9695,-0.9705,-0.9718,-0.9733,-0.9739,-0.9756,-0.9776,-0.9776,-0.9798,-0.9812,-0.9836,-0.9845,-0.9863,-0.9856,-0.9864,-0.9866,-0.9868,-0.987,-0.9817,-0.9867,-0.9866,-0.9866,-0.9866,-0.9866,0,-0.9695,-0.9703,-0.9719,-0.9738,-0.9752,-0.9747,-0.9762,-0.9774,-0.9794,-0.9807,-0.9823,-0.9847,-0.9866,-0.9875,-0.9895,-0.9908,-0.9906,-0.9913,-0.9912,-0.9914,-0.9875,-0.9868,-0.9913,-0.9913,-0.9913,-0.9913,-0.9913,-0.9913,-0.972,-0.9746,-0.9749,-0.9779,-0.9787,-0.9809,-0.9818,-0.983,-0.984,-0.9867,-0.9883,-0.9889,-0.99,-0.9921,-0.9939,-0.9941,-0.9948,-0.9956,-0.9957,-0.9921,-0.9916,-0.9912,-0.9905,-0.9957,-0.9958,-0.9994,-0.9995,-0.9995]},{"header":{"parameterUnit":"m.s-1","parameterCategory":1,"la1":30.2991,"la2":30.254,"lo1":-89.0895,"lo2":-89.0444,"dy":0.0017,"dx":0.0017,"nx":28,"ny":28,"refTime":"2024-06-02T21:00:00:Z","depth":0,"parameterNumber":3,"parameterNumberName":"V-component_of_WINDS"},"data":[0,0,0,0,0,0,0,0,0,0,0,0,0,0,0,0,0,0,0,0,0,0,0,0,0,0,0,0,0,0,0,0,0,0,0,0,0,0,0,0,0,0,0,0,0,0,0,0,0,0,0,0,0,0,0,0,0,0,2.6201,2.6201,0,2.6148,2.6148,2.6147,2.6123,2.6123,2.6123,2.6123,2.6065,2.6064,2.6062,0,0,0,0,0,0,0,0,0,0,0,0,0,2.6279,2.6277,2.6202,2.6201,2.62,2.6149,2.6148,2.6147,2.6123,2.6123,2.6123,2.6123,2.6066,2.6064,2.6062,0,0,0,0,0,0,0,0,0,0,0,0,0,2.6237,2.6277,2.6202,2.6182,2.618,2.6149,2.6148,2.6147,2.6123,2.6123,2.6123,2.6124,2.6066,2.6064,2.6062,2.6044,0,0,2.6054,2.6053,0,0,0,0,0,0,0,0,2.624,2.6234,2.6186,2.6183,2.6181,2.6143,2.6154,2.6112,2.6123,2.6145,2.6123,2.6124,2.6091,2.6086,2.6076,2.6042,2.6039,2.6054,2.6052,2.6051,2.6051,0,0,0,0,0,0,0,2.6242,2.6236,2.618,2.6185,2.6182,2.6175,2.6169,2.6146,2.6117,2.6143,2.6141,2.6135,2.6089,2.6078,2.6074,2.6038,2.6054,2.6052,2.605,2.6049,2.5987,2.5987,0,0,0,0,0,0,2.6249,2.6239,2.6182,2.6179,2.6211,2.6173,2.6167,2.6155,2.6118,2.6112,2.6135,2.6134,2.6082,2.6077,2.6072,2.605,2.6051,2.6049,2.6048,2.5987,2.5987,2.5987,0,0,0,0,0,0,2.6251,2.6244,2.6184,2.6208,2.62,2.6172,2.6158,2.6154,2.6143,2.6112,2.6107,2.6129,2.6082,2.6076,2.6052,2.6047,2.6048,2.6046,2.5988,2.5987,2.5987,2.6005,0,0,0,0,0,0,2.6253,2.6245,2.6239,2.6209,2.6199,2.6166,2.6158,2.6153,2.6139,2.6137,2.6105,2.61,2.6082,2.6056,2.6049,2.6044,2.6044,2.5988,2.5988,2.5987,2.6004,2.6005,2.6006,0,0,0,0,0,2.6256,2.6245,2.6239,2.6232,2.6191,2.6166,2.616,2.6141,2.6139,2.6132,2.6112,2.6101,2.6049,2.6053,2.6046,2.604,2.5988,2.5988,2.5987,2.6004,2.6005,2.6006,0,0,0,0,0,0,2.6275,2.6241,2.6233,2.6213,2.6193,2.6162,2.6153,2.6142,2.6121,2.612,2.6096,2.6089,2.6067,2.6051,2.6056,2.6021,2.6017,2.6016,2.6033,2.6033,2.6034,2.6038,2.6042,0,0,0,0,0,2.6277,2.626,2.6231,2.6215,2.6206,2.6181,2.6169,2.6156,2.6133,2.6124,2.6103,2.608,2.6059,2.6045,2.6024,2.6002,2.5994,2.5994,2.5995,2.5996,2.5994,2.5981,2.5981,2.5986,2.5986,2.5986,0,0,2.628,2.6259,2.625,2.6219,2.6201,2.6183,2.6174,2.6155,2.6141,2.6121,2.6098,2.6081,2.6054,2.6032,2.602,2.6018,2.5991,2.5995,2.5996,2.5994,2.5981,2.598,2.598,2.5985,2.5985,2.5985,0,0,2.6277,2.626,2.6246,2.6229,2.6203,2.6187,2.6183,2.6154,2.6143,2.612,2.6104,2.6086,2.605,2.6032,2.6017,2.6008,2.5996,2.6001,2.6005,2.5992,2.5992,2.5991,2.5988,2.5987,2.6,2.6,2.6,0,2.6284,2.6258,2.6239,2.6222,2.6208,2.619,2.6174,2.6158,2.6127,2.6117,2.6115,2.6069,2.6049,2.6022,2.602,2.6009,2.6004,2.6005,2.5994,2.5993,2.5992,2.5988,2.5987,2.6001,2.6001,2.6001,2.6001,0,2.6268,2.625,2.6241,2.6212,2.6197,2.6181,2.6158,2.6145,2.6134,2.6117,2.6093,2.6069,2.6043,2.6035,2.6023,2.6006,2.6005,2.5999,2.5994,2.5993,2.5989,2.5987,2.6002,2.6002,2.6002,2.6001,0,0,2.6275,2.6236,2.6233,2.622,2.6191,2.6176,2.6158,2.6134,2.6123,2.6101,2.6085,2.6055,2.6049,2.6033,2.6019,2.6008,2.6002,2.6002,2.6001,2.6003,2.5981,2.5986,2.5985,2.5994,2.5994,2.5993,2.5983,0,2.6268,2.6237,2.6219,2.6195,2.6178,2.6161,2.6145,2.6125,2.6109,2.6091,2.6073,2.6052,2.6046,2.6036,2.6025,2.6005,2.5997,2.6005,2.5978,2.5977,2.5985,2.5983,2.5988,2.598,2.5982,2.5981,2.5981,0,2.6255,2.6236,2.621,2.6183,2.6175,2.6162,2.6138,2.6121,2.6097,2.6087,2.6069,2.6055,2.6035,2.6032,2.6003,2.601,2.5997,2.5986,2.5985,2.5981,2.5979,2.5979,2.5977,2.5975,2.5979,2.5979,2.5979,0,2.6263,2.623,2.621,2.62,2.6167,2.6158,2.6144,2.6121,2.6107,2.6086,2.6077,2.6053,2.6039,2.6021,2.6,2.6,2.5973,2.5969,2.5963,2.5963,2.5957,2.5958,2.5953,2.595,2.595,2.595,2.595,0,2.6256,2.6241,2.6213,2.6201,2.6184,2.6163,2.6146,2.6131,2.611,2.6094,2.6077,2.6062,2.6036,2.6017,2.6001,2.5979,2.5973,2.5963,2.5959,2.5964,2.5966,2.5956,2.5956,2.595,2.595,2.595,2.595,0,2.6262,2.6243,2.622,2.6192,2.6184,2.6173,2.6148,2.6135,2.6119,2.6098,2.6092,2.6066,2.6044,2.6021,2.599,2.5979,2.5958,2.5952,2.5966,2.5964,2.5959,2.596,2.5947,2.5944,2.5944,2.5944,2.5944,0,2.6259,2.6247,2.6218,2.6207,2.6194,2.6175,2.6162,2.6141,2.6127,2.6099,2.609,2.6066,2.6046,2.601,2.5988,2.5964,2.5957,2.5955,2.5953,2.596,2.5957,2.5958,2.5956,2.5955,2.5955,2.5955,2.5955,0,2.6256,2.6247,2.6229,2.6207,2.6192,2.6174,2.6154,2.6146,2.6121,2.6106,2.6084,2.6068,2.6037,2.6014,2.5987,2.5971,2.5959,2.5956,2.5953,2.5959,2.5967,2.5962,2.5968,2.5956,2.5956,2.5956,2.5956,2.5956,2.6257,2.6246,2.6224,2.6204,2.6188,2.617,2.6157,2.6139,2.6121,2.6095,2.6083,2.606,2.6036,2.6,2.5984,2.5965,2.5962,2.5958,2.5957,2.5956,2.5957,2.5971,2.596,2.596,2.596,2.596,2.596,0,2.6253,2.6238,2.622,2.6195,2.6179,2.617,2.6148,2.6135,2.6116,2.6095,2.6076,2.605,2.6027,2.6003,2.5979,2.5968,2.5962,2.5962,2.5962,2.5959,2.5962,2.5967,2.5968,2.5968,2.5968,2.5968,2.5968,2.5968,2.6249,2.623,2.6218,2.619,2.6175,2.6154,2.6142,2.6125,2.6109,2.6081,2.6062,2.6047,2.6025,2.5999,2.5977,2.5971,2.5962,2.5964,2.5956,2.5959,2.5959,2.5958,2.5963,2.5963,2.5963,2.5955,2.5955,2.5955]}]]